| time (UTC) | temp F | wind direction | speed MPH | gust MPH | rain 1hr in | rain 24hr in | rain mn in | humidity % | barometer mb |
| 20260504081531 | 50 | 41 | 12.0 | 19.0 | 0.00 | 0.00 | 0.00 | 48 | 1007.7 |
| 20260504044557 | 56 | 34 | 8.0 | 11.0 | 0.00 | 0.07 | 0.00 | 38 | 1001.5 |
| 20260504043103 | 57 | 30 | 8.0 | 11.0 | 0.00 | 0.07 | 0.00 | 36 | 1001.2 |
| 20260504041557 | 58 | 28 | 8.0 | 12.0 | 0.00 | 0.07 | 0.00 | 35 | 1001.1 |
| 20260504040131 | 59 | 22 | 10.0 | 14.0 | 0.00 | 0.07 | 0.00 | 33 | 1000.8 |
| 20260504034601 | 58 | 38 | 8.0 | 12.0 | 0.00 | 0.07 | 0.00 | 32 | 1000.3 |
| 20260504033056 | 60 | 42 | 8.0 | 15.0 | 0.00 | 0.07 | 0.00 | 29 | 1000.1 |
| 20260504031612 | 60 | 33 | 7.0 | 11.0 | 0.00 | 0.07 | 0.00 | 27 | 999.8 |
| 20260504030053 | 62 | 21 | 0.0 | 4.0 | 0.00 | 0.07 | 0.00 | 25 | 999.3 |
| 20260504024552 | 63 | 21 | 4.0 | 8.0 | 0.00 | 0.07 | 0.00 | 24 | 999.3 |
| 20260504023053 | 64 | 17 | 4.0 | 6.0 | 0.00 | 0.07 | 0.00 | 23 | 999.3 |
| 20260504021553 | 67 | 5 | 6.0 | 10.0 | 0.00 | 0.07 | 0.00 | 21 | 999.4 |
| 20260504020107 | 68 | 13 | 8.0 | 13.0 | 0.00 | 0.07 | 0.00 | 20 | 999.3 |
| 20260504014551 | 70 | 13 | 7.0 | 12.0 | 0.00 | 0.07 | 0.00 | 20 | 999.3 |
| 20260504013050 | 71 | 360 | 11.0 | 17.0 | 0.00 | 0.07 | 0.00 | 19 | 999.2 |
| 20260504011549 | 73 | 5 | 11.0 | 16.0 | 0.00 | 0.07 | 0.00 | 17 | 999.3 |
| 20260504010053 | 73 | 360 | 13.0 | 16.0 | 0.00 | 0.07 | 0.00 | 17 | 999.4 |
| 20260504004547 | 74 | 15 | 11.0 | 17.0 | 0.00 | 0.07 | 0.00 | 16 | 999.5 |
| 20260504003045 | 74 | 329 | 9.0 | 17.0 | 0.00 | 0.07 | 0.00 | 15 | 999.7 |
| 20260504001551 | 75 | 319 | 11.0 | 21.0 | 0.00 | 0.07 | 0.00 | 15 | 999.9 |
| 20260504000043 | 74 | 333 | 11.0 | 17.0 | 0.00 | 0.07 | 0.00 | 15 | 1000.0 |
| 20260503234601 | 74 | 284 | 15.0 | 22.0 | 0.00 | 0.07 | 0.00 | 15 | 1000.0 |
| 20260503233047 | 74 | 360 | 12.0 | 16.0 | 0.00 | 0.07 | 0.00 | 16 | 1000.0 |
| 20260503231540 | 74 | 286 | 14.0 | 20.0 | 0.00 | 0.07 | 0.00 | 16 | 1000.3 |
| 20260503230040 | 74 | 282 | 12.0 | 20.0 | 0.00 | 0.07 | 0.00 | 16 | 1000.4 |
| 20260503224536 | 73 | 314 | 7.0 | 15.0 | 0.00 | 0.07 | 0.00 | 17 | 1000.6 |
| 20260503223034 | 74 | 321 | 11.0 | 22.0 | 0.00 | 0.07 | 0.00 | 17 | 1000.7 |
| 20260503221536 | 74 | 355 | 9.0 | 18.0 | 0.00 | 0.07 | 0.00 | 16 | 1001.0 |
| 20260503220031 | 73 | 317 | 9.0 | 19.0 | 0.00 | 0.07 | 0.00 | 16 | 1001.2 |
| 20260503214528 | 74 | 284 | 14.0 | 22.0 | 0.00 | 0.07 | 0.00 | 17 | 1001.6 |
| 20260503213027 | 73 | 319 | 11.0 | 18.0 | 0.00 | 0.07 | 0.00 | 17 | 1001.8 |
| 20260503211525 | 73 | 292 | 13.0 | 20.0 | 0.00 | 0.07 | 0.00 | 17 | 1002.0 |
| 20260503210023 | 73 | 298 | 11.0 | 21.0 | 0.00 | 0.07 | 0.00 | 17 | 1002.4 |
| 20260503204523 | 73 | 327 | 12.0 | 20.0 | 0.00 | 0.07 | 0.00 | 18 | 1002.6 |
| 20260503203020 | 72 | 313 | 9.0 | 17.0 | 0.00 | 0.07 | 0.00 | 17 | 1002.8 |
| 20260503201518 | 71 | 317 | 17.0 | 22.0 | 0.00 | 0.07 | 0.00 | 19 | 1002.8 |
| 20260503200016 | 72 | 296 | 12.0 | 18.0 | 0.00 | 0.07 | 0.00 | 20 | 1003.0 |
| 20260503194513 | 72 | 277 | 11.0 | 20.0 | 0.00 | 0.07 | 0.00 | 19 | 1003.2 |
| 20260503193012 | 71 | 288 | 14.0 | 21.0 | 0.00 | 0.07 | 0.00 | 20 | 1003.5 |
| 20260503191509 | 70 | 282 | 12.0 | 26.0 | 0.00 | 0.07 | 0.00 | 20 | 1003.7 |
| 20260503190005 | 70 | 293 | 16.0 | 23.0 | 0.00 | 0.07 | 0.00 | 22 | 1003.8 |
| 20260503184503 | 69 | 268 | 10.0 | 24.0 | 0.00 | 0.07 | 0.00 | 24 | 1004.3 |
| 20260503183100 | 68 | 321 | 10.0 | 19.0 | 0.00 | 0.07 | 0.00 | 23 | 1004.5 |
| 20260503181558 | 69 | 321 | 9.0 | 19.0 | 0.00 | 0.07 | 0.00 | 25 | 1004.9 |
| 20260503180105 | 68 | 297 | 8.0 | 14.0 | 0.00 | 0.07 | 0.00 | 27 | 1004.9 |
| 20260503174558 | 67 | 312 | 9.0 | 14.0 | 0.00 | 0.07 | 0.00 | 27 | 1005.1 |
| 20260503173051 | 66 | 286 | 11.0 | 18.0 | 0.00 | 0.07 | 0.00 | 32 | 1005.1 |
| 20260503171551 | 66 | 309 | 9.0 | 17.0 | 0.00 | 0.07 | 0.00 | 35 | 1005.1 |